﻿測定場所 (Monitoring sites),日付 (Measurement date),時間 (Measurement time),線量率 最大値 (max) μGy/h,線量率 最小値 (min) μGy/h,線量率 平均値 (average) μGy/h,
足立 (Adachi),2024-01-21,23:01～24:00,0.0316,0.0270,0.0291,
足立 (Adachi),2024-01-21,22:01～23:00,0.0311,0.0271,0.0290,
足立 (Adachi),2024-01-21,21:01～22:00,0.0319,0.0270,0.0294,
足立 (Adachi),2024-01-21,20:01～21:00,0.0318,0.0281,0.0297,
足立 (Adachi),2024-01-21,19:01～20:00,0.0317,0.0279,0.0298,
足立 (Adachi),2024-01-21,18:01～19:00,0.0317,0.0272,0.0295,
足立 (Adachi),2024-01-21,17:01～18:00,0.0323,0.0278,0.0296,
足立 (Adachi),2024-01-21,16:01～17:00,0.0340,0.0276,0.0305,
足立 (Adachi),2024-01-21,15:01～16:00,0.0369,0.0299,0.0330,
足立 (Adachi),2024-01-21,14:01～15:00,0.0406,0.0335,0.0375,
足立 (Adachi),2024-01-21,13:01～14:00,0.0386,0.0344,0.0365,
足立 (Adachi),2024-01-21,12:01～13:00,0.0431,0.0353,0.0388,
足立 (Adachi),2024-01-21,11:01～12:00,0.0454,0.0403,0.0430,
足立 (Adachi),2024-01-21,10:01～11:00,0.0481,0.0407,0.0446,
足立 (Adachi),2024-01-21,09:01～10:00,0.0536,0.0457,0.0496,
足立 (Adachi),2024-01-21,08:01～09:00,0.0553,0.0503,0.0530,
足立 (Adachi),2024-01-21,07:01～08:00,0.0538,0.0470,0.0507,
足立 (Adachi),2024-01-21,06:01～07:00,0.0515,0.0464,0.0490,
足立 (Adachi),2024-01-21,05:01～06:00,0.0517,0.0444,0.0492,
足立 (Adachi),2024-01-21,04:01～05:00,0.0495,0.0433,0.0466,
足立 (Adachi),2024-01-21,03:01～04:00,0.0496,0.0444,0.0467,
足立 (Adachi),2024-01-21,02:01～03:00,0.0510,0.0458,0.0484,
足立 (Adachi),2024-01-21,01:01～02:00,0.0528,0.0470,0.0503,
足立 (Adachi),2024-01-21,00:01～01:00,0.0514,0.0447,0.0482,
足立 (Adachi),2024-01-20,23:01～24:00,0.0486,0.0388,0.0425,
足立 (Adachi),2024-01-20,22:01～23:00,0.0402,0.0356,0.0376,
足立 (Adachi),2024-01-20,21:01～22:00,0.0391,0.0343,0.0369,
足立 (Adachi),2024-01-20,20:01～21:00,0.0360,0.0301,0.0335,
足立 (Adachi),2024-01-20,19:01～20:00,0.0381,0.0322,0.0351,
足立 (Adachi),2024-01-20,18:01～19:00,0.0363,0.0296,0.0327,
足立 (Adachi),2024-01-20,17:01～18:00,0.0332,0.0293,0.0311,
足立 (Adachi),2024-01-20,16:01～17:00,0.0343,0.0287,0.0314,
足立 (Adachi),2024-01-20,15:01～16:00,0.0374,0.0313,0.0341,
足立 (Adachi),2024-01-20,14:01～15:00,0.0379,0.0326,0.0351,
足立 (Adachi),2024-01-20,13:01～14:00,0.0388,0.0324,0.0354,
足立 (Adachi),2024-01-20,12:01～13:00,0.0369,0.0320,0.0349,
足立 (Adachi),2024-01-20,11:01～12:00,0.0352,0.0283,0.0312,
足立 (Adachi),2024-01-20,10:01～11:00,0.0320,0.0286,0.0303,
足立 (Adachi),2024-01-20,09:01～10:00,0.0325,0.0270,0.0305,
足立 (Adachi),2024-01-20,08:01～09:00,0.0325,0.0271,0.0304,
足立 (Adachi),2024-01-20,07:01～08:00,0.0319,0.0285,0.0302,
足立 (Adachi),2024-01-20,06:01～07:00,0.0326,0.0283,0.0302,
足立 (Adachi),2024-01-20,05:01～06:00,0.0319,0.0282,0.0299,
足立 (Adachi),2024-01-20,04:01～05:00,0.0332,0.0278,0.0299,
足立 (Adachi),2024-01-20,03:01～04:00,0.0318,0.0280,0.0300,
足立 (Adachi),2024-01-20,02:01～03:00,0.0322,0.0275,0.0300,
足立 (Adachi),2024-01-20,01:01～02:00,0.0320,0.0280,0.0300,
足立 (Adachi),2024-01-20,00:01～01:00,0.0324,0.0284,0.0304,
足立 (Adachi),2024-01-19,23:01～24:00,0.0326,0.0272,0.0300,
足立 (Adachi),2024-01-19,22:01～23:00,0.0315,0.0275,0.0300,
足立 (Adachi),2024-01-19,21:01～22:00,0.0322,0.0278,0.0300,
足立 (Adachi),2024-01-19,20:01～21:00,0.0321,0.0278,0.0300,
足立 (Adachi),2024-01-19,19:01～20:00,0.0322,0.0280,0.0300,
足立 (Adachi),2024-01-19,18:01～19:00,0.0320,0.0280,0.0297,
足立 (Adachi),2024-01-19,17:01～18:00,0.0320,0.0277,0.0299,
足立 (Adachi),2024-01-19,16:01～17:00,0.0322,0.0276,0.0302,
足立 (Adachi),2024-01-19,15:01～16:00,0.0323,0.0276,0.0303,
足立 (Adachi),2024-01-19,14:01～15:00,0.0336,0.0287,0.0306,
足立 (Adachi),2024-01-19,13:01～14:00,0.0327,0.0283,0.0306,
足立 (Adachi),2024-01-19,12:01～13:00,0.0330,0.0286,0.0308,
足立 (Adachi),2024-01-19,11:01～12:00,0.0332,0.0283,0.0309,
足立 (Adachi),2024-01-19,10:01～11:00,0.0323,0.0286,0.0306,
足立 (Adachi),2024-01-19,09:01～10:00,0.0330,0.0281,0.0305,
足立 (Adachi),2024-01-19,08:01～09:00,0.0329,0.0280,0.0306,
足立 (Adachi),2024-01-19,07:01～08:00,0.0332,0.0288,0.0309,
足立 (Adachi),2024-01-19,06:01～07:00,0.0331,0.0291,0.0310,
足立 (Adachi),2024-01-19,05:01～06:00,0.0337,0.0290,0.0312,
足立 (Adachi),2024-01-19,04:01～05:00,0.0342,0.0278,0.0315,
足立 (Adachi),2024-01-19,03:01～04:00,0.0343,0.0290,0.0316,
足立 (Adachi),2024-01-19,02:01～03:00,0.0331,0.0282,0.0313,
足立 (Adachi),2024-01-19,01:01～02:00,0.0336,0.0290,0.0313,
足立 (Adachi),2024-01-19,00:01～01:00,0.0333,0.0295,0.0313,
足立 (Adachi),2024-01-18,23:01～24:00,0.0337,0.0291,0.0311,
足立 (Adachi),2024-01-18,22:01～23:00,0.0331,0.0289,0.0310,
足立 (Adachi),2024-01-18,21:01～22:00,0.0326,0.0283,0.0308,
足立 (Adachi),2024-01-18,20:01～21:00,0.0328,0.0290,0.0305,
足立 (Adachi),2024-01-18,19:01～20:00,0.0333,0.0280,0.0303,
足立 (Adachi),2024-01-18,18:01～19:00,0.0318,0.0281,0.0302,
足立 (Adachi),2024-01-18,17:01～18:00,0.0320,0.0279,0.0299,
足立 (Adachi),2024-01-18,16:01～17:00,0.0331,0.0283,0.0301,
足立 (Adachi),2024-01-18,15:01～16:00,0.0330,0.0287,0.0306,
足立 (Adachi),2024-01-18,14:01～15:00,0.0332,0.0273,0.0302,
足立 (Adachi),2024-01-18,13:01～14:00,0.0321,0.0283,0.0304,
足立 (Adachi),2024-01-18,12:01～13:00,0.0329,0.0280,0.0305,
足立 (Adachi),2024-01-18,11:01～12:00,0.0326,0.0289,0.0307,
足立 (Adachi),2024-01-18,10:01～11:00,0.0336,0.0283,0.0311,
足立 (Adachi),2024-01-18,09:01～10:00,0.0333,0.0283,0.0311,
足立 (Adachi),2024-01-18,08:01～09:00,0.0336,0.0286,0.0313,
足立 (Adachi),2024-01-18,07:01～08:00,0.0335,0.0284,0.0310,
足立 (Adachi),2024-01-18,06:01～07:00,0.0332,0.0284,0.0307,
足立 (Adachi),2024-01-18,05:01～06:00,0.0325,0.0269,0.0304,
足立 (Adachi),2024-01-18,04:01～05:00,0.0327,0.0279,0.0307,
足立 (Adachi),2024-01-18,03:01～04:00,0.0340,0.0289,0.0307,
足立 (Adachi),2024-01-18,02:01～03:00,0.0333,0.0281,0.0308,
足立 (Adachi),2024-01-18,01:01～02:00,0.0328,0.0292,0.0308,
足立 (Adachi),2024-01-18,00:01～01:00,0.0325,0.0290,0.0307,
足立 (Adachi),2024-01-17,23:01～24:00,0.0330,0.0278,0.0306,
足立 (Adachi),2024-01-17,22:01～23:00,0.0331,0.0290,0.0307,
足立 (Adachi),2024-01-17,21:01～22:00,0.0316,0.0276,0.0300,
足立 (Adachi),2024-01-17,20:01～21:00,0.0315,0.0276,0.0297,
足立 (Adachi),2024-01-17,19:01～20:00,0.0324,0.0281,0.0298,
足立 (Adachi),2024-01-17,18:01～19:00,0.0311,0.0270,0.0293,
足立 (Adachi),2024-01-17,17:01～18:00,0.0314,0.0277,0.0292,
足立 (Adachi),2024-01-17,16:01～17:00,0.0319,0.0271,0.0295,
足立 (Adachi),2024-01-17,15:01～16:00,0.0323,0.0276,0.0297,
足立 (Adachi),2024-01-17,14:01～15:00,0.0322,0.0276,0.0298,
足立 (Adachi),2024-01-17,13:01～14:00,0.0313,0.0273,0.0296,
足立 (Adachi),2024-01-17,12:01～13:00,0.0317,0.0273,0.0296,
足立 (Adachi),2024-01-17,11:01～12:00,0.0321,0.0273,0.0295,
足立 (Adachi),2024-01-17,10:01～11:00,0.0320,0.0274,0.0295,
足立 (Adachi),2024-01-17,09:01～10:00,0.0316,0.0269,0.0290,
足立 (Adachi),2024-01-17,08:01～09:00,0.0310,0.0261,0.0286,
足立 (Adachi),2024-01-17,07:01～08:00,0.0308,0.0258,0.0283,
足立 (Adachi),2024-01-17,06:01～07:00,0.0308,0.0259,0.0283,
足立 (Adachi),2024-01-17,05:01～06:00,0.0305,0.0259,0.0284,
足立 (Adachi),2024-01-17,04:01～05:00,0.0304,0.0257,0.0283,
足立 (Adachi),2024-01-17,03:01～04:00,0.0307,0.0267,0.0284,
足立 (Adachi),2024-01-17,02:01～03:00,0.0324,0.0266,0.0292,
足立 (Adachi),2024-01-17,01:01～02:00,0.0310,0.0270,0.0293,
足立 (Adachi),2024-01-17,00:01～01:00,0.0311,0.0274,0.0293,
足立 (Adachi),2024-01-16,23:01～24:00,0.0320,0.0276,0.0298,
足立 (Adachi),2024-01-16,22:01～23:00,0.0315,0.0278,0.0297,
足立 (Adachi),2024-01-16,21:01～22:00,0.0316,0.0275,0.0295,
足立 (Adachi),2024-01-16,20:01～21:00,0.0317,0.0273,0.0296,
足立 (Adachi),2024-01-16,19:01～20:00,0.0313,0.0273,0.0294,
足立 (Adachi),2024-01-16,18:01～19:00,0.0317,0.0271,0.0292,
足立 (Adachi),2024-01-16,17:01～18:00,0.0311,0.0274,0.0293,
足立 (Adachi),2024-01-16,16:01～17:00,0.0324,0.0277,0.0297,
足立 (Adachi),2024-01-16,15:01～16:00,0.0317,0.0269,0.0294,
足立 (Adachi),2024-01-16,14:01～15:00,0.0318,0.0267,0.0293,
足立 (Adachi),2024-01-16,13:01～14:00,0.0318,0.0269,0.0295,
足立 (Adachi),2024-01-16,12:01～13:00,0.0318,0.0267,0.0293,
足立 (Adachi),2024-01-16,11:01～12:00,0.0323,0.0270,0.0297,
足立 (Adachi),2024-01-16,10:01～11:00,0.0325,0.0280,0.0298,
足立 (Adachi),2024-01-16,09:01～10:00,0.0322,0.0271,0.0294,
足立 (Adachi),2024-01-16,08:01～09:00,0.0316,0.0270,0.0294,
足立 (Adachi),2024-01-16,07:01～08:00,0.0318,0.0270,0.0293,
足立 (Adachi),2024-01-16,06:01～07:00,0.0332,0.0266,0.0294,
足立 (Adachi),2024-01-16,05:01～06:00,0.0325,0.0279,0.0296,
足立 (Adachi),2024-01-16,04:01～05:00,0.0317,0.0280,0.0300,
足立 (Adachi),2024-01-16,03:01～04:00,0.0315,0.0270,0.0295,
足立 (Adachi),2024-01-16,02:01～03:00,0.0318,0.0273,0.0296,
足立 (Adachi),2024-01-16,01:01～02:00,0.0318,0.0275,0.0296,
足立 (Adachi),2024-01-16,00:01～01:00,0.0314,0.0276,0.0297,
足立 (Adachi),2024-01-15,23:01～24:00,0.0330,0.0276,0.0298,
足立 (Adachi),2024-01-15,22:01～23:00,0.0320,0.0283,0.0301,
足立 (Adachi),2024-01-15,21:01～22:00,0.0321,0.0280,0.0302,
足立 (Adachi),2024-01-15,20:01～21:00,0.0327,0.0285,0.0304,
足立 (Adachi),2024-01-15,19:01～20:00,0.0326,0.0290,0.0307,
足立 (Adachi),2024-01-15,18:01～19:00,0.0327,0.0287,0.0307,
足立 (Adachi),2024-01-15,17:01～18:00,0.0326,0.0284,0.0303,
足立 (Adachi),2024-01-15,16:01～17:00,0.0322,0.0280,0.0300,
足立 (Adachi),2024-01-15,15:01～16:00,0.0325,0.0280,0.0304,
足立 (Adachi),2024-01-15,14:01～15:00,0.0322,0.0282,0.0303,
足立 (Adachi),2024-01-15,13:01～14:00,0.0326,0.0285,0.0304,
足立 (Adachi),2024-01-15,12:01～13:00,0.0342,0.0288,0.0309,
足立 (Adachi),2024-01-15,11:01～12:00,0.0329,0.0289,0.0309,
足立 (Adachi),2024-01-15,10:01～11:00,0.0336,0.0287,0.0311,
足立 (Adachi),2024-01-15,09:01～10:00,0.0330,0.0291,0.0312,
足立 (Adachi),2024-01-15,08:01～09:00,0.0336,0.0290,0.0313,
足立 (Adachi),2024-01-15,07:01～08:00,0.0332,0.0289,0.0311,
足立 (Adachi),2024-01-15,06:01～07:00,0.0332,0.0290,0.0313,
足立 (Adachi),2024-01-15,05:01～06:00,0.0336,0.0283,0.0311,
足立 (Adachi),2024-01-15,04:01～05:00,0.0339,0.0293,0.0312,
足立 (Adachi),2024-01-15,03:01～04:00,0.0342,0.0286,0.0311,
足立 (Adachi),2024-01-15,02:01～03:00,0.0332,0.0292,0.0314,
足立 (Adachi),2024-01-15,01:01～02:00,0.0341,0.0294,0.0313,
足立 (Adachi),2024-01-15,00:01～01:00,0.0333,0.0289,0.0309,
